YAMAL 402

Last updated on Nov. 19, 2019, 4:25 a.m. UTC

1 39022U 12070A   19321.84235528  .00000092  00000-0  00000-0 0  9990
2 39022   0.0183 313.0586 0002974 296.3059 165.4122  1.00270805 25294
UTC
Height (km)
Latitude
Longitude
Inclination
Orbital Period
UTC large
Height (km)
Speed (km/s)
/
Latitude / Longitude
Inclination (degrees)
Orbital Period (minutes)
Azimuth
Elevation
Range (km)
Doppler Factor
iOS Compass Heading
iOS Angle

Next 30 passes for location: Hong Kong

Rise time Rise Azimuth (degrees) Set time Set Azimuth (degrees) Duration Max altitude (degrees)

No matching passes for this satellites